Location: Unspecified
(0.0000°N, 0.0000°E)
Time: 13:45:46
(UTC+00:00)

Courier 1B Rocket - All Passes

Search period start: 21 February 2019 00:00
Search period end: 03 March 2019 00:00
Orbit: 921 x 1202 km, 28.2° (Epoch: 20 February)

Date Brightness Start Highest point End Pass type
(mag) Time Alt. Az. Time Alt. Az. Time Alt. Az.
21 Feb - 01:30:32 10° WSW 01:38:14 88° SSE 01:46:08 10° ENE night (unlit)
21 Feb - 03:25:35 10° W 03:32:17 31° NNW 03:38:56 10° NNE visible
21 Feb - 05:26:05 10° NNW 05:27:08 10° NNW 05:28:11 10° N visible
21 Feb - 11:09:43 10° NNW 11:14:23 20° NNE 11:18:53 10° ENE daylight
21 Feb - 13:01:43 10° NW 13:08:09 71° NNE 13:14:22 10° ESE daylight
21 Feb - 14:56:10 10° W 15:01:34 30° SSW 15:06:58 10° SSE daylight
21 Feb - 22:37:53 10° SSW 22:42:49 19° SSE 22:47:57 10° ESE night (unlit)
22 Feb - 00:29:30 10° SW 00:36:55 61° SSE 00:44:37 10° ENE night (unlit)
22 Feb - 02:23:34 10° W 02:30:51 44° NNW 02:38:13 10° NE visible
22 Feb - 04:21:14 10° NW 04:25:23 15° NNW 04:29:30 10° N visible
22 Feb - 10:09:38 10° N 10:12:59 14° NNE 10:16:13 10° NE daylight
22 Feb - 12:00:49 10° NW 12:07:06 45° NNE 12:13:06 10° E daylight
22 Feb - 13:54:26 10° WNW 14:00:31 46° SSW 14:06:29 10° SE daylight
22 Feb - 15:51:44 10° SW 15:54:23 13° SSW 15:57:03 10° S daylight
22 Feb - 21:38:21 10° S 21:41:18 13° SSE 21:44:18 10° SE visible
22 Feb - 23:28:47 10° SW 23:35:36 41° SSE 23:42:46 10° E night (unlit)
23 Feb - 01:21:57 10° WSW 01:29:27 64° NNW 01:37:13 10° NE night (unlit)
23 Feb - 03:18:06 10° WNW 03:23:44 21° NNW 03:29:22 10° NNE visible
23 Feb - 11:00:04 10° NNW 11:05:57 31° NNE 11:11:32 10° E daylight
23 Feb - 12:53:00 10° WNW 12:59:32 73° SSW 13:05:47 10° SE daylight
23 Feb - 14:48:44 10° WSW 14:53:07 19° SSW 14:57:27 10° SSE daylight
23 Feb - 22:28:21 10° SSW 22:34:17 28° SSE 22:40:30 10° E night (unlit)
24 Feb - 00:20:42 10° WSW 00:28:08 89° SSE 00:35:58 10° ENE night (unlit)
24 Feb - 02:15:39 10° W 02:22:11 30° NNW 02:28:50 10° NNE night (unlit)
24 Feb - 04:15:50 10° NNW 04:17:09 10° NNW 04:18:28 10° N visible
24 Feb - 09:59:31 10° NNW 10:04:40 21° NNE 10:09:34 10° ENE daylight
24 Feb - 11:51:47 10° NW 11:58:31 73° NNE 12:04:51 10° ESE daylight
24 Feb - 13:46:28 10° W 13:51:58 29° SSW 13:57:20 10° SSE daylight
24 Feb - 21:28:18 10° SSW 21:32:55 19° SSE 21:37:44 10° ESE visible
24 Feb - 23:19:46 10° SW 23:26:51 61° SSE 23:34:25 10° ENE night (unlit)
25 Feb - 01:13:43 10° W 01:20:44 43° NNW 01:28:03 10° NE night (unlit)
25 Feb - 03:11:17 10° NW 03:15:21 15° NNW 03:19:26 10° N visible
25 Feb - 08:59:12 10° NNW 09:03:11 15° NNE 09:07:02 10° NE daylight
25 Feb - 10:50:45 10° NW 10:57:25 48° NNE 11:03:39 10° ESE daylight
25 Feb - 12:44:36 10° WNW 12:50:55 46° SSW 12:56:56 10° SE daylight
25 Feb - 14:42:14 10° SW 14:44:46 12° SSW 14:47:17 10° S daylight
25 Feb - 20:29:01 10° S 20:31:28 12° SSE 20:33:58 10° SE visible
25 Feb - 22:19:07 10° SW 22:25:38 41° SSE 22:32:34 10° E night (unlit)
26 Feb - 00:12:11 10° WSW 00:19:23 62° NNW 00:27:01 10° NE night (unlit)
26 Feb - 02:08:14 10° WNW 02:13:40 21° NNW 02:19:12 10° NNE night (unlit)
26 Feb - 07:59:32 10° N 08:01:32 11° NNE 08:03:31 10° NE daylight
26 Feb - 09:49:54 10° NW 09:56:12 33° NNE 10:02:07 10° E daylight
26 Feb - 11:43:02 10° WNW 11:49:52 72° SSW 11:56:16 10° SE daylight
26 Feb - 13:39:00 10° WSW 13:43:29 19° SSW 13:47:51 10° SSE daylight
26 Feb - 21:18:46 10° SSW 21:24:23 27° SSE 21:30:19 10° E visible
26 Feb - 23:11:00 10° WSW 23:18:07 89° NW 23:25:44 10° ENE night (unlit)
27 Feb - 01:05:53 10° W 01:12:07 29° NNW 01:18:38 10° NNE night (unlit)
27 Feb - 03:06:15 10° NNW 03:07:08 10° NNW 03:08:03 10° N visible
27 Feb - 08:49:13 10° NNW 08:54:50 23° NNE 09:00:11 10° ENE daylight
27 Feb - 10:41:43 10° NW 10:48:47 76° NNE 10:55:22 10° ESE daylight
27 Feb - 12:36:36 10° W 12:42:19 29° SSW 12:47:47 10° SSE daylight
27 Feb - 20:18:48 10° SSW 20:23:06 18° SSE 20:27:34 10° ESE visible
27 Feb - 22:10:08 10° SW 22:16:55 62° SSE 22:24:13 10° ENE visible
28 Feb - 00:04:00 10° W 00:10:42 41° NNW 00:17:48 10° NE night (unlit)
28 Feb - 02:01:33 10° NW 02:05:19 14° NNW 02:09:09 10° N night (unlit)
28 Feb - 07:48:46 10° NNW 07:53:19 17° NNE 07:57:42 10° ENE daylight
28 Feb - 09:40:35 10° NW 09:47:37 51° NNE 09:54:11 10° ESE daylight
28 Feb - 11:34:36 10° WNW 11:41:12 46° SSW 11:47:24 10° SE daylight
28 Feb - 13:32:26 10° SW 13:35:06 13° SSW 13:37:44 10° S daylight
28 Feb - 19:19:46 10° S 19:21:43 11° SSE 19:23:42 10° SE visible
28 Feb - 21:09:33 10° SW 21:15:46 40° SSE 21:22:23 10° E visible
28 Feb - 23:02:33 10° WSW 23:09:24 59° NNW 23:16:46 10° NE night (unlit)
01 Mar - 00:58:35 10° WNW 01:03:39 20° NNW 01:08:54 10° NNE night (unlit)
01 Mar - 06:48:47 10° N 06:51:37 12° NNE 06:54:25 10° NE daylight
01 Mar - 08:39:38 10° NW 08:46:20 35° NNE 08:52:38 10° E daylight
01 Mar - 10:32:56 10° WNW 10:40:06 71° SSW 10:46:46 10° SE daylight
01 Mar - 12:29:05 10° WSW 12:33:47 20° SSW 12:38:20 10° SSE daylight
01 Mar - 20:09:15 10° SSW 20:14:36 26° SSE 20:20:12 10° E visible
01 Mar - 22:01:26 10° WSW 22:08:12 87° NNW 22:15:31 10° ENE visible
01 Mar - 23:56:16 10° W 00:02:08 27° NNW 00:08:20 10° NNE night (unlit)
02 Mar - 07:38:53 10° NNW 07:44:55 25° NNE 07:50:41 10° ENE daylight
02 Mar - 09:31:31 10° NW 09:38:57 79° NNE 09:45:51 10° ESE daylight
02 Mar - 11:26:34 10° W 11:32:35 30° SSW 11:38:16 10° SSE daylight
02 Mar - 19:09:20 10° SSW 19:13:22 17° SSE 19:17:32 10° ESE visible
02 Mar - 21:00:36 10° SW 21:07:06 62° SSE 21:14:03 10° ENE visible
02 Mar - 22:54:27 10° W 23:00:46 38° NNW 23:07:32 10° NE night (unlit)
